Location: Usti nad Labem
(50.6670°N, 14.0330°E)
Time: 21:28:39
(UTC+01:00)

Envisat - Pass Details

Date: 11 December 2020
Orbit: 764 x 766 km, 98.1° (Epoch: 15 January)

Event Time Altitude Azimuth Distance (km) Brightness Sun altitude
Rises 05:05:20 0° 22° (NNE) 3,245 6.5 -25.7°
Reaches altitude 10° 05:08:00 10° 35° (NE) 2,313 5.8 -25.3°
Maximum altitude 05:12:18 27° 93° (E) 1,447 5.1 -24.6°
Drops below altitude 10° 05:16:34 10° 150° (SSE) 2,297 5.9 -23.9°
Sets 05:19:12 0° 163° (SSE) 3,218 6.6 -23.5°
